EHI
0 0 0 0 0 0 0 0 0 0 0 0 0 0 0 0 0 0 0 0 0 0 0 0 0 0 0 0 0 0 0 0 0 0 0 0 0 0 0 0 0 0 0 0
0 0 0 0 0 0 0 0 0 0 0 0 0 0 0 0 0 0 0 0 0 0 0 0 0 0 0 0 0 0 0 0 0 0 0 0 0 0 0 0 0 0 0 0
0 0 0 0 0 0 0 0 0 0 0 0 0 0 0 0 0 0 0 0 0 0 0 0 0 0 0 0 0 0 0 0 0 0 0 0 0 0 0 0 0 0 0 0
0 0 0 0 0 0 0 0 0 0 0 0 0 0 0 0 0 0 0 0 0 0 0 0 0 0 0 0 0 0 0 0 0 0 0 0 0 0 0 0 0 0 0 0
0 0 0 0 0 0 0 0 0 0 0 0 0 0 0 0 0 0 0 0 0 0 0 0 0 0 0 0 0 0 0 0 0 0 0 0 0 0 0 0 0 0 0 0
0 0 0 0 0 0 0 0 0 0 0 0 0 0 0 0 0 0 0 0 0 0 0 0 0 0 0 0 0 0 0 0 0 0 0 0 0 0 0 0 0 0 0 0
0 0 0 0 0 0 0 0 0 0 0 0 0 0 0 0 0 0 0 0 0 0 0 0 0 0 0 0 0 0 0 0 0 0 0 0 0 0 0 0 0 0 0 0
0 0 0 0 0 0 0 0 0 0 0 0 0 0 0 0 0 0 0 0 0 0 0 0 0 0 0 0 0 0 0 0 0 0 0 0 0 0 0 0 0 0 0 0
0 0 0 0 0 0 0 0 0 0 0 0 0 0 0 0 0 0 0 0 0 0 0 0 0 0 0 0 0 0 0 0 0 0 0 0 0 0 0 0 0 0 0 0
0 0 0 0 0 0 0 0 0 0 0 0 0 0 0 0 0 0 0 0 0 0 0 0 0 0 0 0 0 0 0 0 0 0 0 0 0 0 0 0 0 0 0 0
0 0 0 0 0 0 0 0 0 0 0 0 0 0 0 0 0 0 0 0 0 0 0 0 0 0 0 0 0 0 0 0 0 0 0 0 0 0 0 0 0 0 0 0
0 0 0 0 0 0 0 0 0 0 0 0 0 0 0 0 0 0 0 0 0 0 0 0 0 0 0 0 0 0 0 0 0 0 0 0 0 0 0 0 0 0 0 0
0 0 0 0 0 0 0 0 0 0 0 0 0 0 0 0 0 0 0 0 0 0 0 0 0 0 0 0 0 0 0 0 0 0 0 0 0 0 0 0 0 0 0 0
0 0 0 0 0 0 0 0 0 0 0 0 0 0 0 0 0 0 0 0 0 0 0 0 0 0 0 0 0 0 0 0 0 0 0 0 0 0 0 0 0 0 0 0
0 0 0 0 0 0 0 0 0 0 0 0 0 0 0 0 0 0 0 0 0 0 0 0 0 0 0 0 0 0 0 0 0 0 0 0 0 0 0 0 0 0 0 0
0 0 0 0 0 0 0 0 0 0 0 0 0 0 0 0 0 0 0 0 0 0 0 0 0 0 0 0 0 0 0 0 0 0 0 0 0 0 0 0 0 0 0 0
0 0 0 0 0 0 0 0 0 0 0 0 0 0 0 0 0 0 0 0 0 0 0 0 0 0 0 0 0 0 0 0 0 0 0 0 0 0 0 0 0 0 0 0
0 0 0 0 0 0 0 0 0 0 0 0 0 0 0 0 0 0 0 0 0 0 0 0 0 0 0 0 0 0 0 0 0 0 0 0 0 0 0 0 0 0 0 0
0 0 0 0 0 0 0 0 0 0 0 0 0 0 0 0 0 0 0 0 0 0 0 0 0 0 0 0 0 0 0 0 0 0 0 0 0 0 0 0 0 0 0 0
0 0 0 0 0 0 0 0 0 0 0 0 0 0 0 0 0 0 0 0 0 0 0 0 0 0 0 0 0 0 0 0 0 0 0 0 0 0 0 0 0 0 0 0
0 0 0 0 0 0 0 0 0 0 0 0 0 0 0 0 0 0 0 0 0 0 0 0 0 0 0 0 0 0 0 0 0 0 0 0 0 0 0 0 0 0 0 0
0 0 0 0 0 0 0 0 0 0 0 0 0 0 0 0 0 0 0 0 0 0 0 0 0 0 0 0 0 0 0 0 0 0 0 0 0 0 0 0 0 0 0 0
0 0 0 0 0 0 0 0 0 0 0 0 0 0 0 0 0 0 0 0 0 0 0 0 0 0 0 0 0 0 0 0 0 0 0 0 0 0 0 0 0 0 0 0
0 0 0 0 0 0 0 0 0 0 0 0 0 0 0 0 0 0 0 0 0 0 0 0 0 0 0 0 0 0 0 0 0 0 0 0 0 0 0 0 0 0 0 0
0 0 0 0 0 0 0 0 0 0 0 0 0 0 0 0 0 0 0 0 0 0 0 0 0 0 0 0 0 0 0 0 0 0 0 0 0 0 0 0 0 0 0 0
0 0 0 0 0 0 0 0 0 0 0 0 0 0 0 0 0 0 0 0 0 0 0 0 0 0 0 0 0 0 0 0 0 0 0 0 0 0 0 0 0 0 0 0
0 0 0 0 0 0 0 0 0 0 0 0 0 0 0 0 0 0 0 0 0 0 0 0 0 0 0 0 0 0 0 0 0 0 0 0 0 0 0 0 0 0 0 0
Wind_Speed
10 8 7 9 9 9 10 10 8 8 7 6 2 2 1 1 1 2 2 2 2 1 1 1 1 0 0 1 1 1 1 2 2 2 2 2 2 2 3 3 3 3 3 4
9 8 9 11 12 11 12 12 13 11 10 5 1 1 1 1 1 1 1 2 2 2 1 1 0 0 0 1 1 2 2 2 2 2 2 2 2 2 2 2 2 3 3 3
7 6 6 11 10 11 9 9 8 11 8 2 1 1 1 1 2 1 1 1 1 1 1 1 0 0 1 1 1 1 2 2 1 2 2 2 2 2 2 2 2 3 3 3
5 4 11 8 2 4 7 7 6 5 3 2 2 1 1 2 2 1 1 1 1 1 1 1 1 1 1 1 0 0 1 1 1 1 1 1 2 3 3 2 3 3 3 3
4 6 10 5 3 3 5 6 5 6 4 1 2 2 1 3 3 2 1 1 1 1 1 1 1 1 1 1 1 1 1 1 1 1 2 2 2 3 3 3 3 3 3 3
5 6 7 3 2 1 2 5 2 3 2 1 3 1 1 2 3 3 3 2 2 2 2 1 1 1 2 1 1 1 1 1 1 1 2 3 3 3 2 2 3 3 3 3
8 7 7 1 2 4 4 4 1 2 2 2 2 1 1 2 3 2 2 2 2 2 2 1 2 2 1 1 1 2 1 1 1 1 2 2 2 2 2 2 2 2 3 3
6 7 7 1 3 4 2 3 3 3 3 3 2 3 3 3 2 2 2 2 2 2 2 2 2 2 2 2 2 2 1 2 2 2 2 2 1 1 1 2 2 3 2 3
6 6 1 3 2 2 3 3 3 3 2 2 2 1 2 2 2 2 2 2 2 2 2 3 2 2 2 3 2 2 2 2 2 2 2 1 1 2 2 2 2 2 2 3
3 2 0 2 3 4 4 3 3 3 2 2 1 1 2 2 2 2 2 1 2 2 2 2 2 2 2 3 3 2 2 2 2 2 2 2 1 1 2 2 2 2 2 3
5 3 1 1 2 2 2 3 3 3 3 2 1 1 1 1 1 1 2 2 2 1 1 2 3 2 3 3 3 3 3 3 3 2 2 2 2 2 2 2 3 3 3 3
5 3 2 2 1 2 2 2 1 2 2 2 1 1 2 1 1 1 1 1 1 2 2 2 3 3 3 3 2 2 2 3 2 2 2 2 2 3 3 4 5 6 6 5
3 3 1 1 1 1 1 1 1 1 1 2 2 2 1 1 1 2 2 2 2 2 2 2 2 2 3 3 2 2 2 3 2 2 2 3 2 2 3 4 5 7 7 8
1 1 1 1 1 1 2 3 2 2 2 2 2 2 1 1 2 2 2 2 2 2 2 2 2 3 3 3 2 2 3 3 3 2 2 3 3 3 3 3 4 4 5 7
2 1 1 0 1 2 3 3 2 2 2 2 1 1 1 1 2 2 2 2 2 2 2 2 3 3 3 3 2 3 3 2 2 2 3 3 3 3 3 4 4 4 3 4
1 1 1 1 1 1 1 1 1 1 1 1 1 1 1 1 1 2 2 2 2 3 3 3 3 3 3 3 3 3 3 4 5 3 3 3 3 3 3 3 4 4 4 4
0 0 0 0 0 1 1 0 0 1 1 1 1 1 1 1 2 2 2 2 2 2 3 3 3 3 3 3 3 3 3 4 6 4 3 3 3 4 4 4 4 4 4 4
2 2 1 1 1 1 1 1 1 1 1 1 1 1 1 1 1 2 2 2 2 3 3 3 2 3 3 3 3 3 3 3 3 4 4 4 4 4 4 4 4 5 4 4
4 4 3 3 2 1 1 2 2 2 2 1 1 1 1 1 1 2 2 2 3 4 4 2 5 4 4 4 5 3 3 4 4 4 4 6 6 4 4 4 4 4 4 4
4 4 3 3 3 2 2 2 2 2 2 1 1 1 2 2 2 2 2 2 3 3 3 4 4 3 3 4 5 3 4 4 5 5 4 4 4 4 4 4 4 4 4 4
4 4 4 3 3 3 2 2 2 2 2 1 1 2 3 3 3 2 2 3 3 3 3 5 3 3 3 5 6 4 4 4 5 5 5 5 5 4 4 4 4 5 4 4
4 4 4 3 3 3 3 2 2 2 2 2 2 2 2 3 3 3 3 3 4 6 4 3 3 5 7 8 4 4 4 5 5 4 4 4 4 4 4 4 4 4 4 4
3 3 3 3 3 3 3 3 3 2 2 2 2 2 3 3 3 3 4 3 3 6 5 3 6 10 12 6 4 4 4 5 5 5 5 4 4 4 4 5 4 4 3 3
4 4 4 3 3 3 4 4 3 2 2 2 3 3 3 3 3 2 3 6 8 8 5 6 10 11 11 4 3 4 4 4 5 5 5 4 4 4 4 4 4 3 3 4
4 4 4 4 3 3 3 3 3 3 3 2 3 3 2 2 3 4 4 4 7 8 5 7 11 11 7 4 4 4 4 4 5 5 4 4 4 4 4 4 3 3 3 3
4 3 3 3 3 2 2 3 3 3 3 3 3 3 3 2 3 3 3 4 5 8 6 4 5 7 4 4 4 5 5 5 5 5 4 4 4 5 4 4 4 3 3 3
4 3 3 3 3 3 3 3 3 3 4 4 5 4 3 3 3 4 4 4 4 4 4 4 4 4 4 4 4 4 4 4 4 4 4 4 4 4 4 4 3 3 3 3
Wind_Direction
267 273 268 260 251 233 222 222 232 251 259 267 234 209 193 136 103 96 96 84 77 75 88 79 44 61 137 149 138 150 164 195 210 205 191 194 195 192 184 181 184 183 185 189
273 260 257 261 251 239 236 234 241 256 266 265 203 122 120 120 120 111 84 72 59 43 38 47 21 337 15 167 173 170 187 211 205 187 191 200 206 198 186 183 181 183 196 195
266 262 278 257 237 225 225 224 225 239 245 212 133 122 144 137 128 107 70 62 58 38 19 354 314 277 249 227 192 175 192 207 200 187 194 204 206 205 207 201 191 196 203 200
258 264 244 243 200 210 220 229 223 238 242 174 167 129 95 102 104 87 62 59 47 44 18 351 356 353 2 57 85 167 191 202 204 213 224 219 201 211 215 207 205 209 207 208
226 243 263 259 212 203 213 245 229 231 241 185 102 73 54 64 60 45 61 61 50 56 40 33 25 25 61 54 48 38 348 295 251 227 236 243 234 226 219 210 218 214 208 213
223 236 243 252 178 178 161 257 251 204 216 164 121 179 236 48 50 37 53 50 42 35 34 42 16 48 69 50 35 337 303 291 282 246 233 242 244 236 225 217 222 218 218 217
225 238 256 268 145 126 177 252 97 112 106 112 154 183 111 51 55 57 58 47 41 40 39 16 14 43 43 12 320 305 329 337 318 292 265 260 258 243 222 226 228 226 224 224
210 229 245 133 131 168 180 81 78 70 67 69 60 65 60 47 46 58 52 44 38 36 25 14 21 36 18 339 320 331 334 324 314 307 300 296 266 259 238 225 230 234 232 242
205 221 281 132 134 88 77 74 60 64 54 61 62 53 49 46 51 52 46 39 32 29 18 14 14 23 356 326 334 340 336 324 317 315 310 297 268 252 246 230 229 234 228 242
262 250 99 69 61 53 47 42 37 47 48 61 55 42 39 51 54 45 43 41 31 28 17 359 359 1 337 330 342 344 330 323 322 320 319 313 301 268 247 235 230 234 236 244
265 284 331 47 52 43 42 45 44 44 45 49 43 20 31 33 27 26 35 30 33 24 356 339 344 345 342 345 345 335 324 325 326 322 312 306 300 285 272 258 240 242 241 236
251 243 245 280 354 28 45 40 31 35 26 33 43 36 35 25 14 14 20 14 15 3 348 335 337 336 337 336 334 324 321 321 317 313 311 305 302 308 290 269 278 269 261 259
269 289 287 338 22 30 47 43 46 58 58 36 38 58 42 20 7 5 1 4 1 342 330 326 328 331 332 330 335 327 308 304 302 302 302 300 297 292 300 304 291 281 274 270
345 8 313 310 313 23 54 51 56 54 53 48 52 53 40 11 360 358 352 348 339 329 327 328 335 333 332 339 337 324 313 304 300 292 288 289 291 288 282 285 295 297 285 275
351 338 261 44 59 56 73 69 57 43 34 30 42 38 14 0 350 344 342 341 342 338 331 331 331 328 336 341 330 316 312 307 305 297 290 286 285 285 283 280 278 281 287 285
324 353 34 64 80 88 80 81 61 360 2 20 21 10 360 345 334 333 332 336 343 332 324 324 319 319 329 329 321 313 307 305 308 302 297 291 284 280 279 277 277 277 276 276
25 209 237 331 33 50 43 18 0 342 347 359 355 357 4 2 354 344 340 345 342 320 315 310 305 312 320 320 316 308 307 307 308 303 294 288 283 277 274 273 272 270 269 268
37 43 58 73 51 2 352 354 345 332 315 310 341 360 351 345 331 325 329 337 340 330 319 308 314 329 329 324 314 304 304 302 298 292 290 287 285 277 271 269 270 271 275 277
41 44 40 29 19 13 347 329 328 334 328 332 336 312 304 304 306 303 309 322 319 312 313 328 335 336 324 318 317 307 303 298 296 292 288 291 293 284 276 271 269 270 272 272
29 30 29 21 16 10 342 334 339 335 325 333 335 329 320 309 307 310 318 309 292 283 300 320 326 319 315 314 318 307 303 300 296 294 291 286 285 284 281 277 274 274 273 271
12 11 11 7 357 347 337 332 334 321 321 329 314 299 296 298 303 302 298 297 297 304 312 318 320 309 309 312 317 308 302 299 297 294 292 288 285 283 282 283 282 280 276 273
0 359 355 354 350 339 336 334 322 313 319 321 311 305 310 310 310 303 280 274 293 312 317 310 308 309 312 315 307 302 300 299 296 295 292 290 288 287 286 285 282 281 280 278
350 350 346 344 339 330 335 335 327 322 319 315 312 305 297 293 294 294 299 305 311 315 315 303 309 313 315 316 303 299 298 298 297 294 293 292 289 288 287 287 283 282 280 279
348 347 340 336 341 345 336 331 331 328 316 308 301 291 286 295 299 286 283 308 317 316 311 308 313 315 319 314 303 299 298 297 295 293 293 293 293 291 288 287 285 283 281 281
341 337 338 341 341 330 322 326 331 328 323 317 315 313 302 286 289 301 306 307 313 317 315 314 315 316 317 307 304 301 299 293 294 296 291 292 293 293 289 288 288 288 286 286
341 338 334 329 322 322 327 330 326 323 323 320 319 318 316 312 305 304 306 307 309 313 313 308 308 311 309 306 303 301 299 300 304 304 298 294 293 292 288 283 282 281 282 282
341 341 340 340 344 345 340 334 327 324 324 319 315 318 319 319 316 315 313 310 309 308 305 304 305 306 307 306 305 302 301 300 298 296 295 293 291 291 289 284 282 281 282 281